Wind_Speed
21 21 20 20 20 20 20 20 19 18 18 18 17 16 15 14 13 13 12 12 11 11 11 11 11 11 11 10 10 10 10 10 10 10 11 11 12 12 13 13 14 14 15
22 22 22 21 21 21 21 21 21 20 19 19 19 18 17 17 16 15 14 14 13 13 13 13 13 12 12 12 11 11 11 11 11 11 11 12 13 13 13 14 15 15 16
24 24 24 23 23 23 22 22 22 22 21 21 20 20 19 19 18 17 16 16 15 15 14 14 14 14 14 13 13 13 12 12 12 12 12 13 14 14 14 15 16 16 17
26 26 26 26 25 25 25 24 24 24 23 23 22 22 21 20 20 19 18 17 17 17 16 16 16 15 15 15 14 14 14 13 13 13 13 14 15 15 15 16 17 17 18
28 28 28 28 27 27 27 26 26 25 25 25 24 24 23 23 22 21 20 19 19 18 18 18 18 17 17 16 16 16 15 14 14 14 14 15 15 16 16 17 17 18 19
32 31 31 30 30 29 29 28 28 28 27 26 26 26 25 24 24 24 23 22 21 20 20 20 19 19 19 18 17 17 17 16 16 16 15 16 16 16 17 18 18 19 20
35 35 34 33 33 32 31 31 30 30 29 29 28 28 27 27 26 26 25 24 23 22 22 21 21 21 20 20 19 19 19 18 18 17 17 17 17 17 18 19 19 20 20
38 38 38 37 36 35 34 33 33 32 32 31 30 30 29 29 28 28 27 26 25 25 24 23 22 22 22 22 21 21 20 20 19 19 18 18 18 19 19 20 21 21 22
41 40 40 40 39 38 37 36 36 35 34 34 33 32 32 31 31 30 29 29 27 27 26 26 24 24 23 23 23 22 22 21 20 20 20 19 19 20 20 21 22 22 23
43 43 43 42 42 41 40 40 39 38 37 36 36 35 34 34 33 32 32 31 30 29 28 28 27 26 25 25 24 24 23 22 22 21 21 21 21 21 21 22 23 23 24
45 45 46 45 44 44 43 42 41 41 40 39 38 37 37 36 35 34 34 33 32 31 30 29 29 28 27 27 26 25 24 24 23 23 23 23 22 22 23 23 23 24 25
47 47 48 47 47 46 45 45 44 43 42 42 40 40 39 38 38 37 36 35 34 34 33 31 30 30 29 28 27 27 26 25 25 24 24 24 24 24 24 24 25 25 26
49 50 50 50 49 48 48 47 46 46 45 44 43 42 42 41 40 39 39 38 37 35 35 34 33 32 31 30 29 28 28 27 26 26 25 25 25 25 25 25 26 26 27
51 51 52 51 51 50 50 49 49 48 47 46 45 45 44 43 43 42 41 40 39 38 37 36 35 34 33 32 30 29 29 29 28 27 27 27 26 26 26 26 27 27 28
52 52 52 52 52 52 52 51 51 50 49 48 48 47 47 46 45 45 44 42 41 40 39 38 37 36 35 34 32 31 31 30 29 29 29 28 28 27 27 27 28 28 29
51 52 52 53 53 52 52 52 52 52 51 51 50 50 49 48 48 47 46 45 43 42 41 40 39 38 37 36 34 33 32 31 31 30 30 29 29 28 28 29 29 29 30
49 51 51 52 53 54 54 52 53 54 53 52 52 51 51 51 50 49 48 47 46 44 42 42 41 40 38 38 36 35 33 32 31 31 31 31 30 30 30 30 30 31 31
47 49 50 52 54 55 55 54 54 54 54 54 54 53 53 53 52 51 51 50 49 47 45 44 43 42 41 39 38 37 35 33 32 32 33 32 32 32 31 31 31 32 32
45 46 49 50 53 56 56 55 55 55 55 55 55 56 56 56 55 54 53 52 51 49 47 46 45 44 43 41 39 38 37 36 34 34 34 34 33 33 32 32 33 33 33
44 46 49 50 52 53 55 56 56 56 56 56 56 56 56 57 57 56 55 53 53 52 50 47 46 45 44 43 42 41 39 38 36 35 35 35 35 34 33 34 34 34 34
42 44 46 48 51 53 54 54 55 55 55 56 56 55 56 58 58 58 57 55 54 54 53 51 48 47 46 45 44 42 41 39 38 37 36 35 35 35 34 35 34 34 35
40 42 42 44 47 49 52 52 53 53 54 55 56 55 55 56 58 59 58 57 56 55 54 53 50 49 47 47 45 44 42 41 39 39 37 36 36 36 35 36 36 36 36
38 40 40 41 43 45 47 49 50 51 53 54 55 54 55 53 54 57 58 58 57 56 55 53 52 50 49 48 46 45 43 43 41 40 39 38 37 37 37 37 37 37 37
35 36 37 39 39 42 45 47 47 48 50 51 53 53 54 53 51 52 55 57 58 58 56 54 53 52 51 48 47 46 44 44 43 41 40 39 39 38 37 37 38 38 38
32 33 35 38 38 38 41 44 45 45 46 48 50 51 53 53 52 51 52 55 57 58 57 55 54 52 51 48 48 47 45 44 43 42 40 40 39 38 38 38 39 38 39
31 31 33 34 36 37 39 41 42 43 44 45 47 49 51 52 52 50 49 51 55 56 56 55 54 52 51 50 49 48 46 44 43 42 41 40 40 39 39 39 39 39 39
Wind_Direction
249 249 248 247 246 245 244 242 240 238 237 237 239 241 243 247 249 252 256 260 263 267 271 274 277 280 283 288 293 301 309 312 312 312 314 314 314 313 314 316 318 320 319
251 250 248 246 245 245 245 244 244 242 241 240 241 243 244 247 250 252 254 257 260 263 268 271 274 277 279 282 286 292 299 303 306 307 309 311 312 311 312 313 314 316 317
252 251 250 248 246 244 244 244 244 243 244 243 243 243 245 247 249 252 254 257 259 261 264 268 270 274 275 278 281 285 291 296 299 303 305 308 309 309 309 311 311 313 315
252 252 251 251 249 247 245 244 244 243 244 244 245 245 245 247 249 252 254 256 258 261 263 265 268 271 272 274 277 281 285 289 293 297 301 304 306 307 307 308 310 311 312
252 251 251 251 250 249 247 245 244 244 244 245 246 247 247 247 248 250 253 256 258 259 262 264 266 268 268 270 274 277 281 284 288 293 297 300 304 305 306 307 309 309 309
253 251 251 251 250 249 249 248 246 245 245 246 246 247 248 249 249 250 252 254 256 259 261 263 265 266 265 267 271 274 277 281 285 289 292 297 301 304 305 306 307 308 308
253 252 251 251 250 249 248 248 247 246 246 247 248 248 248 249 251 252 252 254 256 258 261 262 263 264 264 265 268 270 274 278 282 286 289 294 298 302 303 304 305 307 308
253 252 251 250 250 250 249 248 248 247 247 247 248 249 250 250 251 253 254 254 256 258 261 262 263 263 263 264 266 268 271 275 278 282 286 290 295 299 301 303 304 306 308
254 252 251 250 250 250 249 249 249 249 248 248 248 249 250 251 252 252 253 255 256 258 260 262 262 262 262 262 264 267 270 273 275 279 283 288 292 297 300 301 303 305 306
254 252 252 251 250 250 249 248 248 249 249 249 249 249 250 251 252 253 253 254 255 257 259 261 262 261 261 262 263 265 268 271 273 277 282 285 290 294 298 300 302 304 306
254 252 251 250 250 250 249 249 248 248 249 249 249 250 250 251 251 252 253 254 255 256 258 259 260 261 261 261 262 263 265 268 271 275 280 284 288 292 295 298 300 302 304
253 252 250 250 250 249 249 249 248 248 249 249 249 250 250 250 252 252 253 254 254 255 256 257 258 259 259 260 260 262 263 266 269 273 279 282 286 290 294 297 299 301 303
252 251 250 249 248 249 249 249 249 248 248 249 249 250 250 251 251 252 252 253 254 255 256 255 254 257 259 260 260 260 261 264 267 271 276 280 284 288 291 295 297 299 302
251 250 248 248 248 248 248 249 249 248 248 248 249 249 250 251 251 252 252 252 253 254 255 255 255 255 258 260 260 259 260 263 265 268 273 277 282 286 289 293 296 298 300
251 249 247 246 246 247 248 249 249 249 248 248 248 248 249 250 250 251 251 251 252 253 253 254 255 255 256 259 260 260 260 262 264 267 271 275 280 284 287 290 294 297 299
250 247 246 245 246 246 247 248 248 249 249 248 248 248 248 249 250 250 251 250 250 251 252 253 253 253 254 256 259 259 260 260 263 266 269 274 278 282 285 289 292 295 297
250 247 246 245 245 246 247 247 247 248 248 248 248 248 248 248 249 249 249 250 250 249 249 251 252 252 253 255 257 258 258 259 261 265 268 272 276 280 284 287 290 293 296
253 249 246 247 246 246 246 247 247 247 248 248 247 247 248 248 248 248 248 248 248 247 247 249 251 252 252 254 256 256 257 258 260 264 267 271 275 279 282 285 289 292 294
255 251 249 249 247 246 246 246 246 247 248 248 247 248 247 247 247 246 246 246 246 246 246 247 249 250 251 251 253 255 256 257 259 262 266 269 273 277 280 283 287 290 292
257 255 252 251 251 248 246 246 247 247 248 248 247 247 247 246 245 245 244 244 244 244 244 245 247 248 250 251 252 254 256 256 258 261 264 268 271 275 278 282 285 288 291
262 259 255 253 252 250 248 247 247 247 247 247 247 246 247 246 244 244 243 242 242 242 243 243 244 246 248 249 250 252 254 255 257 260 263 267 270 273 277 281 284 287 290
266 262 258 256 254 251 250 248 248 248 248 247 246 245 247 246 244 243 241 241 240 240 240 242 242 245 247 249 249 250 253 256 257 259 262 265 269 272 275 279 283 285 288
270 265 261 261 256 253 251 250 250 248 247 247 245 244 245 244 244 242 240 239 238 237 238 240 240 242 245 247 248 250 253 255 257 258 260 264 268 271 274 277 281 284 287
274 268 264 264 261 257 253 251 251 250 248 246 245 243 243 243 243 243 240 238 237 236 236 237 239 240 243 246 248 250 252 255 256 258 260 263 267 270 272 276 279 283 287
278 270 265 263 264 262 256 252 251 250 248 246 244 244 243 242 242 242 241 239 237 235 235 235 237 239 241 243 246 249 251 254 256 258 259 263 266 268 272 275 278 282 285
279 270 268 266 264 264 259 253 251 250 248 246 244 243 243 243 241 240 240 239 237 235 234 234 235 238 240 241 244 247 249 252 255 256 259 262 264 267 270 274 278 281 283
Height
5838 5839 5840 5841 5843 5844 5846 5848 5849 5850 5852 5853 5854 5855 5856 5857 5858 5859 5860 5861 5862 5862 5863 5863 5864 5864 5865 5865 5865 5864 5864 5864 5863 5863 5862 5862 5861 5860 5860 5859 5858 5857 5856
5834 5836 5837 5838 5839 5840 5842 5844 5845 5847 5848 5850 5851 5852 5853 5854 5855 5856 5857 5858 5859 5860 5860 5861 5862 5862 5862 5863 5863 5863 5862 5862 5862 5861 5861 5860 5859 5858 5858 5857 5856 5855 5854
5830 5832 5833 5834 5835 5836 5838 5839 5841 5843 5844 5846 5847 5849 5850 5851 5852 5853 5854 5855 5856 5857 5858 5858 5859 5860 5860 5860 5860 5861 5860 5860 5860 5859 5859 5858 5857 5857 5856 5855 5854 5853 5851
5826 5827 5828 5830 5831 5832 5833 5835 5837 5838 5840 5842 5843 5844 5846 5847 5848 5850 5851 5852 5853 5854 5855 5855 5856 5857 5857 5858 5858 5858 5858 5858 5857 5857 5857 5856 5855 5854 5853 5852 5851 5850 5849
5820 5821 5823 5824 5826 5828 5829 5830 5832 5834 5835 5837 5839 5840 5841 5843 5844 5845 5847 5848 5849 5850 5851 5852 5853 5854 5854 5855 5855 5855 5855 5855 5855 5855 5854 5854 5853 5852 5851 5850 5849 5848 5846
5814 5815 5817 5819 5821 5822 5824 5825 5827 5829 5831 5832 5834 5835 5837 5838 5840 5841 5843 5844 5845 5846 5847 5848 5849 5850 5851 5851 5852 5852 5852 5852 5852 5852 5852 5851 5850 5849 5848 5847 5846 5845 5843
5807 5809 5811 5812 5814 5816 5818 5820 5822 5823 5825 5827 5829 5831 5832 5834 5835 5837 5838 5840 5841 5842 5843 5844 5845 5846 5847 5848 5848 5849 5849 5849 5849 5849 5849 5848 5847 5846 5845 5844 5843 5842 5840
5799 5801 5803 5805 5807 5809 5812 5814 5816 5817 5819 5821 5823 5825 5827 5828 5830 5832 5833 5835 5836 5838 5839 5840 5841 5842 5843 5844 5844 5845 5845 5845 5846 5846 5845 5845 5844 5843 5842 5841 5840 5838 5837
5790 5792 5795 5797 5800 5802 5804 5807 5809 5811 5813 5815 5817 5819 5821 5823 5824 5826 5828 5830 5831 5833 5834 5835 5836 5837 5838 5839 5840 5841 5841 5842 5842 5842 5842 5841 5840 5840 5839 5838 5836 5835 5833
5779 5782 5785 5788 5791 5794 5797 5799 5801 5803 5806 5808 5810 5812 5814 5816 5818 5820 5822 5824 5826 5827 5829 5830 5831 5832 5834 5834 5835 5836 5837 5837 5838 5838 5838 5837 5837 5836 5835 5834 5832 5831 5829
5768 5771 5775 5778 5782 5785 5788 5790 5793 5796 5798 5800 5803 5805 5807 5809 5811 5814 5816 5818 5820 5821 5823 5824 5825 5827 5828 5829 5830 5831 5832 5833 5833 5833 5833 5833 5832 5832 5831 5830 5828 5827 5825
5756 5760 5763 5767 5771 5775 5778 5781 5784 5787 5789 5792 5795 5797 5799 5802 5804 5807 5809 5811 5813 5815 5816 5818 5820 5821 5822 5824 5825 5826 5827 5827 5828 5828 5828 5828 5828 5827 5826 5825 5824 5822 5821
5744 5747 5750 5755 5759 5763 5767 5771 5774 5777 5780 5783 5786 5789 5791 5794 5796 5799 5801 5804 5806 5808 5809 5811 5813 5815 5816 5818 5819 5820 5821 5822 5823 5823 5823 5823 5823 5822 5821 5820 5819 5818 5816
5730 5734 5738 5742 5747 5752 5756 5760 5763 5767 5770 5773 5776 5779 5782 5785 5788 5790 5793 5796 5798 5801 5802 5804 5806 5808 5810 5811 5813 5814 5815 5816 5817 5817 5818 5818 5818 5817 5816 5815 5814 5812 5811
5716 5720 5725 5729 5734 5739 5743 5747 5752 5755 5759 5763 5766 5769 5772 5775 5778 5781 5784 5787 5790 5793 5795 5797 5799 5801 5803 5805 5806 5808 5809 5810 5811 5812 5812 5812 5812 5812 5811 5810 5808 5807 5805
5702 5707 5712 5716 5721 5726 5730 5734 5739 5743 5747 5751 5755 5758 5761 5765 5768 5772 5775 5778 5781 5784 5786 5789 5791 5793 5796 5798 5799 5801 5802 5804 5805 5806 5806 5806 5806 5806 5805 5804 5803 5801 5799
5688 5693 5698 5703 5708 5712 5716 5721 5725 5730 5734 5738 5742 5746 5750 5753 5757 5761 5764 5768 5771 5774 5777 5780 5783 5785 5788 5790 5792 5794 5795 5797 5798 5799 5800 5800 5800 5800 5799 5798 5797 5795 5793
5675 5680 5685 5689 5694 5698 5703 5707 5711 5716 5720 5724 5729 5733 5737 5741 5745 5749 5753 5757 5761 5764 5768 5771 5774 5777 5780 5782 5784 5786 5788 5789 5791 5792 5793 5793 5793 5793 5793 5792 5790 5789 5787
5662 5666 5670 5675 5679 5683 5687 5692 5696 5700 5705 5710 5714 5718 5722 5727 5731 5736 5740 5745 5749 5753 5757 5761 5765 5768 5771 5773 5776 5778 5780 5782 5783 5785 5786 5786 5786 5786 5786 5785 5784 5782 5780
5651 5653 5656 5660 5663 5667 5672 5676 5681 5686 5690 5694 5698 5703 5707 5711 5716 5721 5727 5732 5737 5742 5746 5751 5755 5759 5762 5764 5767 5770 5772 5774 5776 5777 5778 5779 5779 5779 5779 5778 5777 5775 5773
5638 5640 5642 5645 5648 5651 5655 5660 5665 5670 5674 5678 5682 5687 5691 5695 5700 5706 5712 5718 5724 5729 5734 5739 5744 5748 5752 5754 5758 5761 5763 5765 5768 5769 5770 5771 5771 5772 5771 5771 5769 5768 5766
5626 5627 5628 5631 5632 5636 5640 5644 5649 5654 5658 5662 5667 5672 5675 5679 5684 5690 5697 5704 5710 5716 5721 5727 5732 5737 5741 5744 5748 5751 5754 5757 5759 5761 5762 5763 5764 5764 5764 5763 5762 5761 5759
5615 5616 5617 5618 5620 5623 5626 5629 5633 5637 5642 5646 5651 5657 5661 5665 5670 5675 5682 5689 5695 5702 5708 5715 5721 5726 5730 5734 5738 5742 5745 5748 5750 5752 5754 5755 5756 5756 5756 5755 5754 5753 5751
5605 5605 5606 5607 5609 5611 5613 5616 5619 5623 5628 5632 5637 5642 5646 5651 5656 5661 5667 5674 5681 5688 5695 5702 5708 5714 5719 5723 5727 5731 5735 5739 5741 5743 5745 5747 5747 5748 5747 5747 5746 5745 5743
5596 5596 5597 5597 5598 5599 5600 5603 5606 5610 5614 5618 5622 5627 5632 5637 5642 5648 5654 5659 5667 5674 5682 5689 5695 5701 5707 5712 5717 5721 5725 5729 5731 5734 5736 5738 5739 5739 5739 5739 5738 5737 5735
5588 5588 5588 5587 5588 5589 5589 5592 5595 5598 5601 5605 5609 5614 5619 5624 5629 5635 5640 5646 5653 5661 5668 5676 5683 5689 5696 5701 5706 5710 5715 5718 5722 5725 5727 5728 5730 5730 5730 5730 5730 5728 5727